sat.trackr.live / text

‹ back to catalog

STARLINK-3202

NORAD 49742 · 2021-115U

PAYLOAD ACTIVE UNKNOWN

§ Identity

Operator
Country
US
Launch date
2021-12-02
Launch site
AFETR
Launch vehicle
Mass (kg)
RCS (m²)

Purposes: comms

External: N2YO · Heavens-Above · Gunter

§ Orbital elements

Epoch: 2026-05-25T01:43:41.359008Z

Period
95.44 min
Inclination
53.2156°
Eccentricity
0.0001091
Mean motion
15.08837394 rev/d
Perigee alt
539.0 km
Apogee alt
540.5 km
Semi-major
6,917.9 km
B*
-4.1722e-6
RAAN
166.2266°
Arg perigee
77.1731°
Mean anomaly
282.9383°
Rev number
24,706

§ Raw data

STARLINK-32021 49742U 21115U   26145.07200647 -.00000354  00000+0 -41722-5 0  99942 49742  53.2156 166.2266 0001091  77.1731 282.9383 15.08837394247068

JSON: /api/v1/satellites/49742 · /tle

For live sub-satellite position, see the globe view (requires WebGL).

§ Visibility from observer

Set your observer location to see the next 7 days of passes ≥ 10°. The values pass through the URL so the page stays shareable.

No JS? Fill the form by hand. The geolocation button needs JavaScript.